GW2753 Weather Reports


time (UTC)temp
C
wind
direction
speed
KPH
gust
KPH
rain 1hr
cm
rain 24hr
cm
rain mn
cm
humidity
%
barometer
mb
20260505124545 12 0 0.0 3.2 0.00 0.00 0.00 91 1013.2
20260505123039 11 180 0.0 4.8 0.00 0.00 0.00 92 1013.1
20260505121541 10 180 0.0 4.8 0.00 0.00 0.00 92 1012.9
20260505120049 10 0 0.0 4.8 0.00 0.00 0.00 92 1012.9
20260505114542 9 180 0.0 4.8 0.00 0.00 0.00 92 1012.8
20260505113038 9 0 0.0 0.0 0.00 0.00 0.00 91 1012.7
20260505111536 9 0 0.0 0.0 0.00 0.00 0.00 91 1012.8
20260505101542 9 0 0.0 0.0 0.00 0.00 0.00 90 1012.5
20260505100037 9 0 0.0 0.0 0.00 0.00 0.00 90 1012.2
20260505094603 9 0 0.0 0.0 0.00 0.00 0.00 90 1012.0
20260505093041 9 0 0.0 0.0 0.00 0.00 0.00 90 1011.9
20260505091542 9 0 0.0 0.0 0.00 0.00 0.00 90 1011.8
20260505090044 10 0 0.0 0.0 0.00 0.00 0.00 89 1011.7
20260505084546 10 0 0.0 0.0 0.00 0.00 0.00 89 1011.6
20260505083038 10 0 0.0 0.0 0.00 0.00 0.00 89 1011.6
20260505081535 10 0 0.0 0.0 0.00 0.00 0.00 89 1011.6
20260505080049 10 0 0.0 0.0 0.00 0.00 0.00 88 1011.4
20260505074540 10 0 0.0 0.0 0.00 0.00 0.00 88 1011.4
20260505073044 10 0 0.0 0.0 0.00 0.00 0.00 87 1011.3
20260505071533 10 0 0.0 0.0 0.00 0.00 0.00 87 1011.2
20260505070052 10 0 0.0 0.0 0.00 0.00 0.00 87 1011.1
20260505064542 11 0 0.0 0.0 0.00 0.00 0.00 86 1011.3
20260505063043 11 0 0.0 0.0 0.00 0.00 0.00 86 1011.2
20260505061552 11 0 0.0 0.0 0.00 0.00 0.00 86 1011.2
20260505060037 11 0 0.0 0.0 0.00 0.00 0.00 86 1011.3
20260505054539 11 0 0.0 0.0 0.00 0.00 0.00 85 1011.2
20260505053049 11 180 0.0 3.2 0.00 0.00 0.00 84 1011.2
20260505051538 12 0 0.0 3.2 0.00 0.00 0.00 84 1011.0
20260505041551 12 0 3.2 4.8 0.00 0.00 0.00 82 1010.7
20260505040049 13 0 0.0 4.8 0.00 0.00 0.00 82 1010.6
20260505034541 13 0 1.6 4.8 0.00 0.00 0.00 81 1010.4
20260505033035 13 0 0.0 3.2 0.00 0.00 0.00 80 1010.4
20260505031543 13 180 0.0 4.8 0.00 0.00 0.00 79 1010.3
20260505030041 14 0 0.0 4.8 0.00 0.00 0.00 78 1010.4
20260505024555 14 0 1.6 6.4 0.00 0.00 0.00 77 1010.3
20260505023038 15 180 0.0 4.8 0.00 0.00 0.00 76 1010.3
20260505021542 15 0 0.0 4.8 0.00 0.00 0.00 75 1010.2
20260505020040 15 180 1.6 4.8 0.00 0.00 0.00 74 1010.1
20260505014559 16 180 3.2 6.4 0.00 0.00 0.00 72 1010.1
20260505013037 16 180 1.6 4.8 0.00 0.00 0.00 72 1010.0
20260505011554 16 180 1.6 4.8 0.00 0.00 0.00 71 1009.9
20260505010042 17 0 0.0 6.4 0.00 0.00 0.00 70 1009.8
20260505004542 17 0 0.0 4.8 0.00 0.00 0.00 69 1009.7
20260505003039 17 180 3.2 4.8 0.00 0.00 0.00 67 1009.7
20260505001542 18 180 1.6 4.8 0.00 0.00 0.00 67 1009.8
20260505000054 19 0 0.0 4.8 0.00 0.00 0.00 64 1009.6
20260504234547 20 0 0.0 3.2 0.00 0.00 0.00 59 1009.3
20260504233056 21 180 0.0 14.5 0.00 0.00 0.00 56 1009.3
20260504231540 21 180 1.6 4.8 0.00 0.00 0.00 54 1009.3
20260504230037 22 180 1.6 6.4 0.00 0.00 0.00 51 1009.3
20260504224537 23 180 3.2 8.0 0.00 0.00 0.00 46 1009.4
20260504223053 24 180 0.0 16.1 0.00 0.00 0.00 42 1009.5
20260504221540 24 189 4.8 14.5 0.00 0.00 0.00 40 1009.4
20260504220039 24 143 0.0 14.5 0.00 0.00 0.00 46 1009.5
20260504214544 23 351 0.0 9.7 0.00 0.00 0.00 50 1009.5
20260504213049 24 65 1.6 6.4 0.00 0.00 0.00 44 1009.7
20260504211542 24 330 3.2 6.4 0.00 0.00 0.00 42 1009.9
20260504210044 24 310 3.2 11.3 0.00 0.00 0.00 42 1010.1
20260504204545 23 325 1.6 14.5 0.00 0.00 0.00 43 1010.3
20260504203049 22 93 3.2 16.1 0.00 0.00 0.00 42 1010.4
20260504201535 22 185 1.6 24.1 0.00 0.00 0.00 48 1010.8
20260504200044 22 145 3.2 22.5 0.00 0.00 0.00 49 1011.0
20260504194539 21 180 4.8 19.3 0.00 0.00 0.00 52 1011.3
20260504193039 21 180 4.8 12.9 0.00 0.00 0.00 55 1011.5
20260504191538 22 0 4.8 14.5 0.00 0.00 0.00 49 1011.1
20260504190040 22 180 3.2 12.9 0.00 0.00 0.00 44 1010.9
20260504184542 22 180 3.2 19.3 0.00 0.00 0.00 45 1010.8
20260504183040 22 180 4.8 16.1 0.00 0.00 0.00 44 1011.1
20260504181545 22 180 11.3 25.7 0.00 0.00 0.00 43 1011.2
20260504180443 22 180 9.7 27.4 0.00 0.00 0.00 44 1011.3
20260504174535 21 180 4.8 20.9 0.00 0.00 0.00 46 1011.5
20260504171547 20 180 4.8 22.5 0.00 0.00 0.00 51 1012.3
20260504170109 19 180 4.8 17.7 0.00 0.00 0.00 54 1012.6